OPS 4682 DEB, 14049

Orbit data source: Space-Track

OPS 4682 DEB, 14049 is space debris in LEO originally from a launch on Sat, 03 Apr 1965 UTC launched from the Air Force Western Test Range (AFWTR). Debris objects in space refer to the collection of defunct objects orbiting the Earth. Examples of debris include non-operational satellites, rocket bodies, and fragments generated from explosions, collisions, or faulty payload assembly.

Loading next visibility...
Identifier
14049, 1965-027L
Orbit
LEO
Country
Flag of USUS
Related business
Manufacturer
Unknown
Mission
Spacecraft
Bus & Motor
Unknown
Mass
Unknown
Launch date (UTC)
1965-04-03 (61 years ago)
Launch vehicle
Unknown
Launch site
Air Force Western Test Range (AFWTR)
Object type
Payload
Rocket body
Debris
Shape & HBR
Unknown shape, 0.1 m
Radar Cross Section
Small (<0.1 m²)

Expand to show TLE details & history
Last TLE update: 2 days ago

TLE from 2 days ago
0 OPS 4682 DEB
1 14049U 65027L   26118.17000274  .00000369  00000-0  12955-2 0  9999
2 14049  90.2484   7.3354 0040279 320.8379 195.7345 12.94583296 51754
Epoch: 2026-04-28T04:04Z
TLE epoch observation values (Epoch: 2026-04-28T04:04:48.236Z)
Latitude
23.57012°
Longitude
-89.90692°
Altitude
1,315.944 km
Speed
7.187 km/s
True Right ascension
12h 29m 46s
True Declination
23° 27' 12"
Sunlit
Object was in full shadow at epoch
Visualization orbit readout
Latitude
Unknown
Longitude
Unknown
Altitude
Unknown
Speed
Unknown
Apparent Right ascension
Unknown
Apparent Declination
Unknown
Sunlit
N/A
Visualization observer readout
Local Sidereal Time
19:56:03
Azimuth
Unknown
Elevation
Unknown
Doppler factor
Unknown
Orbital elements
Apogee altitude
1,311.367 km
Perigee altitude
1,249.67 km
Semi-major axis
7,658.656 km
Eccentricity
0.00403
Inclination
90.2484°
RAAN
7.3354°
Arg. of periapsis
320.8379°
True anomaly
195.60994°
Mean anomaly
195.7345°
Eccentric anomaly
195.67216°
Mean motion
3.23828 °/min
Orbital period
111.17 mins
BSTAR
0.0012955
Loading maneuver chart data...
Computing Atmospheric mass density...
Loading historical data...
Loading historical data...
Loading historical data...
Loading historical data...
Loading historical data...
Loading historical data...
Loading historical data...

Documentation

Showing up to 5 results
|